Theta_e
319 319 319 320 320 320 321 321 321 321 321 321 321 321 321 321 322 322 322 322 322 322 322 323 323 323 323 324 324 323 320 318 314 313 311 313 317 325 329 333 332 334 333 314 310 309 306 307 307 310 312 304 302 302 304 313 312 310 301 299 298 304 301 308 307 308 310 307 309 312 316 316 313 319 321 324 320 319 319 318 321 323 323 325 327 329 330 330
319 319 319 320 320 320 320 320 321 321 321 321 321 321 321 322 321 322 322 322 322 322 322 323 323 323 323 323 323 322 318 317 308 307 308 321 326 331 333 333 334 331 328 310 309 307 307 305 307 307 304 302 304 301 311 310 316 308 306 303 300 305 305 311 309 311 308 308 310 313 317 317 316 318 320 316 316 316 315 316 318 318 320 323 325 325 326 327
319 319 319 319 319 320 320 320 321 321 321 321 321 321 321 322 322 322 322 322 322 322 323 323 323 323 323 323 323 320 319 318 311 308 314 328 330 331 332 334 333 333 311 309 309 308 306 307 307 307 303 302 301 302 312 310 312 310 304 299 301 308 309 311 311 310 311 312 311 313 316 318 318 319 322 316 314 315 312 312 315 315 316 319 322 323 323 325
318 318 319 319 319 320 320 320 320 320 320 320 321 321 321 321 322 322 322 322 322 322 322 323 323 323 323 323 321 318 319 309 305 310 311 330 331 331 331 330 334 328 316 311 309 310 310 309 308 307 305 301 301 309 308 311 307 308 305 301 303 308 305 309 313 311 311 312 311 312 315 316 318 319 319 316 313 313 315 317 315 315 317 319 321 322 323 323
318 318 318 319 319 319 319 320 320 320 320 320 320 321 321 321 321 321 321 321 322 322 322 323 323 323 323 322 318 318 310 292 299 307 310 329 333 332 331 333 332 315 311 313 312 309 308 307 306 307 304 299 308 308 307 311 311 307 305 308 308 309 307 309 311 313 313 312 312 312 312 313 320 320 318 316 311 310 314 319 319 320 320 320 320 321 323 322
318 318 318 318 318 319 319 319 320 320 320 320 320 320 320 321 321 321 321 321 322 322 323 323 323 323 324 316 317 318 304 287 303 309 331 329 332 333 334 335 334 316 311 310 309 309 308 307 307 303 304 303 304 304 308 310 311 301 305 310 310 311 308 309 311 313 313 312 312 311 313 316 314 314 317 316 314 316 322 322 322 322 322 322 322 322 321 321
318 318 318 318 318 318 319 319 319 319 320 320 320 320 320 321 321 321 321 321 322 322 323 323 323 323 323 317 317 314 306 308 307 310 332 332 332 334 336 335 332 312 311 308 308 307 306 307 305 304 306 306 306 305 308 308 309 305 302 307 308 311 310 312 310 311 311 314 311 314 317 314 315 311 318 316 319 321 323 324 323 323 323 323 321 321 321 321
317 318 318 318 318 318 318 319 319 319 319 320 320 320 320 320 320 320 321 321 321 322 322 323 323 323 321 317 314 305 306 304 309 318 333 332 331 332 334 321 317 314 312 308 308 307 308 305 304 310 305 304 306 307 309 307 308 306 304 307 309 311 310 312 312 314 314 314 315 315 313 313 316 314 317 315 319 321 322 324 325 325 324 323 322 322 321 320
317 317 318 318 318 318 318 318 318 319 319 320 320 320 320 319 319 320 320 321 321 322 322 322 323 322 317 313 308 298 299 308 311 317 326 326 325 323 315 311 315 310 311 311 310 309 308 306 308 309 303 306 310 307 308 304 302 307 307 309 310 311 311 312 312 314 314 315 315 313 312 314 316 318 314 317 319 322 323 323 324 324 322 322 323 322 319 317
317 317 317 317 318 318 318 318 318 319 319 320 320 320 320 318 318 319 320 321 321 322 322 323 323 319 318 317 305 294 307 314 315 318 324 320 321 319 317 311 313 310 309 309 310 309 306 307 310 313 312 310 312 308 309 307 302 309 308 309 309 310 311 313 310 313 314 314 315 311 311 312 314 313 306 318 320 322 322 322 323 322 321 322 320 318 318 317
317 317 317 317 317 317 317 317 318 319 319 319 319 318 317 317 318 319 320 321 322 322 323 323 323 320 316 316 298 296 311 312 313 317 321 315 316 317 316 315 313 312 310 311 310 310 310 310 313 314 312 306 311 308 309 307 310 309 308 308 309 310 311 311 312 311 313 312 314 313 310 312 312 314 310 315 320 322 319 320 320 320 320 318 317 317 317 317
316 317 317 317 317 317 317 317 318 318 319 318 317 316 316 316 317 318 319 320 321 322 323 323 321 320 315 310 301 303 312 312 315 316 317 312 312 314 315 316 316 315 312 310 309 310 309 311 314 309 304 312 304 309 308 312 312 309 307 304 307 309 309 309 308 310 312 310 314 314 309 307 308 308 314 318 320 320 319 318 319 319 317 316 316 315 315 316
316 317 317 317 317 316 316 317 318 318 318 316 315 315 315 316 317 318 320 320 322 323 324 322 320 318 313 301 303 313 312 309 314 315 317 313 313 314 315 314 315 316 314 310 308 310 308 314 314 310 312 309 307 301 309 313 312 309 310 306 303 303 302 307 310 310 310 312 315 310 293 298 307 311 316 319 318 319 317 317 318 318 316 315 314 314 314 316
316 316 316 316 316 316 316 317 317 317 316 315 315 314 315 315 317 319 321 321 323 324 324 321 319 317 309 304 311 312 316 314 312 313 312 314 311 311 310 313 312 308 309 308 308 308 309 315 315 313 314 310 305 313 308 310 309 300 307 303 296 296 296 306 308 308 307 313 312 310 296 297 306 311 316 318 319 317 315 316 316 317 317 316 317 317 315 315
316 316 316 316 316 315 316 316 316 316 315 315 314 314 314 315 317 320 321 321 322 323 323 320 318 310 301 305 312 313 352 311 311 310 311 310 309 309 310 309 309 310 308 309 309 308 309 314 313 309 306 311 312 307 302 303 303 302 295 294 298 292 293 302 308 307 304 309 310 308 297 299 306 310 315 317 317 317 314 314 315 315 316 316 317 317 316 318
316 316 316 316 315 315 316 316 315 314 314 314 313 313 314 315 318 320 322 321 321 322 319 318 321 310 307 302 307 324 312 308 308 310 308 311 310 307 309 308 307 308 308 309 310 310 307 307 306 308 308 309 305 299 297 296 295 297 294 295 295 296 293 297 304 307 309 307 308 305 296 301 304 310 314 317 316 315 313 313 313 314 315 315 316 316 316 318
315 315 315 315 315 315 315 316 315 314 313 312 312 313 314 316 320 320 320 320 321 320 319 311 318 311 302 307 313 307 305 308 311 310 311 310 310 309 309 309 308 307 307 306 310 308 305 303 307 307 304 300 299 298 291 286 290 293 294 292 296 294 293 292 301 305 306 306 302 305 301 302 304 309 311 314 315 313 311 311 312 314 314 314 315 316 316 316
315 315 315 315 315 314 315 315 315 314 312 311 311 313 313 317 316 318 317 318 320 320 319 317 311 306 300 305 303 303 307 308 310 308 309 308 310 309 308 306 307 305 305 304 305 304 304 300 300 295 295 297 295 291 286 286 289 288 291 293 295 296 295 295 296 301 305 305 302 302 301 302 304 309 310 312 313 312 311 311 311 312 313 314 315 315 315 315
314 315 314 314 314 314 314 314 314 313 311 310 313 316 317 316 319 318 316 315 309 304 297 303 302 294 294 302 306 308 310 310 313 309 307 308 311 308 309 309 306 304 301 298 302 304 301 299 300 296 292 293 295 294 289 293 295 296 295 294 294 292 292 293 299 304 305 301 301 302 300 301 304 307 308 310 312 310 309 311 310 312 313 313 313 313 314 314
314 314 314 314 314 313 313 313 313 312 311 310 312 317 313 311 308 306 312 311 307 307 308 305 308 304 304 305 307 309 314 313 308 308 308 309 311 307 308 307 303 302 298 297 299 301 303 294 291 292 294 296 297 296 297 298 300 299 297 296 294 293 297 299 300 303 306 301 300 302 303 302 304 305 307 309 310 307 309 309 309 309 311 312 312 313 314 313
314 314 314 314 314 313 312 312 311 310 310 308 311 315 307 309 305 303 309 311 310 312 310 310 306 304 305 308 310 309 308 307 309 305 309 313 309 308 303 302 297 297 296 300 299 302 301 293 294 297 298 298 297 296 297 297 298 296 294 294 293 294 291 297 298 302 302 298 297 302 302 302 303 305 306 307 308 306 307 308 308 309 311 311 312 312 313 313
313 314 313 314 314 312 311 311 310 309 310 310 319 311 312 314 316 316 310 303 311 313 310 308 306 307 308 309 311 310 307 304 303 305 308 312 308 301 300 300 299 296 298 299 297 295 294 292 296 298 300 298 298 298 298 297 295 295 293 291 290 291 295 298 299 301 302 302 296 302 300 300 302 304 305 306 307 306 308 309 309 310 310 311 311 311 311 312
313 313 314 313 312 311 310 309 309 307 310 313 312 310 313 319 320 321 314 306 304 312 307 306 304 305 305 307 310 308 303 301 302 303 306 309 304 303 302 297 296 297 296 298 295 291 291 293 297 300 298 296 296 296 296 295 294 292 290 289 292 292 292 288 292 300 303 300 299 300 299 299 303 305 305 306 306 307 308 311 310 312 310 311 312 311 311 312
312 313 313 313 312 311 309 308 307 311 314 312 315 311 315 320 321 317 311 304 304 308 308 308 309 307 306 306 310 308 303 304 303 302 309 307 304 305 300 300 297 296 295 298 297 294 293 298 300 300 299 297 295 295 294 292 290 293 293 293 291 293 293 291 291 300 302 304 304 301 297 295 299 301 302 306 308 310 309 310 309 310 312 312 312 313 313 312
312 312 312 312 312 310 308 307 313 312 312 313 313 320 318 322 323 317 309 303 304 303 309 308 310 308 309 314 313 307 306 305 305 307 309 307 305 301 302 306 296 295 296 297 295 294 294 299 299 298 297 296 295 293 293 292 289 289 294 293 296 293 293 294 296 295 289 293 300 298 284 290 293 298 299 301 304 306 306 307 307 309 310 311 311 311 312 313
312 311 311 311 310 308 308 314 315 312 313 314 317 322 322 324 324 320 309 299 293 300 305 301 310 306 314 307 309 306 305 300 306 308 312 309 311 306 305 296 298 296 297 298 295 294 296 298 298 296 295 294 294 293 294 293 288 288 290 296 295 295 293 292 293 291 284 285 297 298 284 282 288 295 297 300 303 303 303 303 305 308 309 310 311 311 312 312
311 311 310 310 309 308 308 311 313 315 312 315 324 324 325 325 326 318 307 287 284 300 300 305 307 305 311 308 308 307 293 296 308 307 307 311 309 310 300 295 297 300 303 301 292 290 297 296 295 295 295 294 291 291 295 292 286 287 293 295 295 293 293 293 293 290 288 292 295 295 290 286 286 289 295 301 301 301 301 302 305 307 309 310 310 312 312 312
311 311 310 310 309 308 305 310 315 312 314 320 324 325 325 326 324 313 294 280 283 304 304 304 307 313 311 309 307 302 301 306 300 304 307 308 308 304 299 299 296 299 302 295 287 293 297 294 293 293 293 292 292 295 295 295 292 292 293 296 295 295 294 294 292 290 291 288 285 288 294 286 284 291 298 301 298 299 300 300 303 306 307 308 311 312 313 313
310 310 309 309 309 308 307 313 314 315 321 322 325 325 329 324 314 304 284 280 297 301 314 306 316 310 308 308 306 305 303 305 299 304 306 308 308 304 296 300 300 297 299 298 291 295 300 297 296 294 291 291 296 296 297 297 292 293 295 297 297 296 296 293 290 291 289 282 283 288 291 283 285 288 294 297 297 297 298 300 303 304 306 308 311 311 313 313
309 309 309 308 309 311 314 313 314 317 321 324 326 328 325 311 303 291 283 282 303 295 306 307 307 304 307 302 300 303 301 304 304 305 306 305 305 306 304 306 302 298 296 299 296 296 299 306 305 297 295 297 296 297 298 298 297 297 297 295 295 294 291 293 290 287 284 279 282 289 293 287 280 287 293 292 294 297 299 300 302 304 307 308 311 312 313 314
308 308 308 308 308 312 312 311 316 321 323 326 328 324 314 307 293 283 281 291 307 301 306 304 302 305 300 298 296 301 300 300 302 304 300 302 300 302 301 298 301 296 294 295 293 297 298 298 297 299 303 300 298 297 298 299 299 298 293 292 287 287 289 287 283 285 278 277 284 291 292 291 283 286 291 295 299 302 302 302 302 303 304 307 308 312 313 314
307 307 308 304 309 310 311 310 313 322 323 327 325 316 306 291 292 284 286 306 294 297 300 299 302 300 300 301 298 298 298 298 300 298 297 296 295 294 294 290 294 285 287 289 289 294 293 294 296 301 303 299 296 292 295 296 298 297 293 290 285 279 280 277 280 277 277 282 288 293 293 289 285 288 294 298 300 303 304 304 304 304 305 305 308 310 312 313
306 307 308 308 308 308 312 314 319 322 323 326 317 309 297 285 285 289 293 297 293 300 298 301 299 300 300 297 296 301 300 295 299 299 299 299 295 296 300 296 299 293 288 292 288 288 290 295 297 297 296 301 294 289 289 290 294 293 290 284 280 276 273 275 275 277 276 285 290 291 294 286 289 293 299 299 301 305 305 305 305 306 305 306 309 309 310 311
306 307 308 315 309 312 317 320 322 321 324 319 311 304 294 286 289 309 298 298 299 306 301 300 298 298 299 295 300 300 294 300 298 298 300 299 295 293 294 297 297 296 294 292 289 286 283 286 291 294 290 298 295 293 295 293 293 293 295 288 285 278 279 276 278 278 281 280 284 292 286 283 285 288 299 301 303 304 306 306 306 305 305 307 309 309 310 310
306 307 308 312 315 319 318 320 321 323 320 312 306 297 288 289 292 292 296 298 300 302 300 300 298 297 296 299 302 305 298 294 300 297 296 293 292 293 294 293 297 297 296 286 292 289 291 286 292 298 299 298 297 300 300 298 291 293 294 291 289 288 283 283 279 279 281 281 280 285 284 288 289 299 302 301 302 303 304 305 305 305 304 307 307 308 309 310
308 314 319 320 327 328 327 326 324 322 315 308 295 286 288 295 295 298 298 303 304 301 301 298 300 295 296 294 299 299 301 295 297 295 295 294 296 293 298 298 296 299 293 288 290 286 287 289 297 300 299 296 299 301 300 299 286 292 291 287 292 294 290 282 281 286 283 280 282 282 288 293 294 296 298 299 300 301 302 302 302 303 304 304 305 305 307 308
310 315 314 321 326 325 331 329 326 318 313 305 293 289 295 303 306 302 304 304 303 302 298 291 294 295 293 294 294 297 299 298 296 294 291 298 292 297 297 297 299 298 297 292 289 293 287 287 294 298 295 298 300 301 301 302 298 291 288 291 296 297 294 286 282 279 276 277 280 284 285 285 283 283 295 296 297 297 299 300 302 303 302 303 303 303 304 306
308 313 319 319 319 322 327 323 320 316 309 300 293 302 306 304 308 300 302 301 301 298 296 295 297 301 295 292 293 297 296 293 295 295 292 297 291 301 300 298 301 300 300 298 290 294 292 285 292 298 296 300 303 300 296 298 300 296 295 302 290 282 283 284 281 277 276 276 278 284 285 287 285 288 292 295 295 297 298 299 300 301 301 302 303 303 304 305
307 314 311 317 321 324 324 323 316 309 301 296 292 296 304 307 310 302 303 303 302 301 296 300 295 299 297 292 298 299 300 291 296 294 291 294 290 301 299 300 301 302 300 298 291 292 293 284 286 295 297 299 299 293 285 289 296 300 300 296 299 289 287 282 280 282 279 277 276 280 283 283 292 289 294 296 297 298 298 300 299 300 302 302 302 304 305 305
307 305 308 322 326 326 325 320 312 306 299 293 292 300 307 307 307 302 302 302 302 299 300 300 301 295 299 299 300 296 298 297 294 294 294 296 295 301 300 302 299 299 300 300 296 295 290 290 283 290 298 297 289 290 290 288 289 290 292 289 290 291 294 289 289 288 281 277 275 276 277 284 287 295 297 298 298 299 299 299 300 301 301 302 303 304 306 307
311 303 304 321 331 325 318 311 304 302 301 301 304 305 306 305 304 302 304 303 302 304 299 300 298 296 299 297 298 301 296 296 298 293 296 297 294 289 300 302 301 298 299 298 296 293 284 285 287 286 289 289 290 296 296 296 294 291 289 289 289 287 283 283 283 287 288 281 280 276 277 282 292 303 301 298 299 300 301 300 299 300 301 302 304 304 305 305
304 299 306 326 329 322 310 300 300 304 302 301 300 306 305 312 302 301 302 302 302 302 303 300 304 301 300 300 300 299 297 295 298 295 296 293 300 296 300 302 301 301 296 291 294 299 291 288 286 285 289 291 298 299 301 303 301 297 294 295 293 287 284 276 278 279 282 286 289 282 281 283 294 299 301 300 301 301 301 301 301 302 302 302 303 305 305 306
303 304 316 319 326 317 302 295 296 295 300 302 308 307 308 306 303 302 301 300 300 302 301 301 303 301 303 302 300 300 298 295 300 296 297 298 299 300 301 299 302 303 299 294 298 296 317 287 285 288 290 294 298 300 302 302 300 297 297 297 293 291 288 281 278 282 283 285 281 278 280 284 292 300 300 301 302 300 300 301 302 302 302 303 304 305 306 306
303 304 307 317 326 315 302 290 287 286 297 304 306 303 307 305 302 301 300 299 300 301 300 301 301 305 302 304 301 300 301 289 300 299 296 299 296 303 301 302 302 301 299 297 293 299 288 289 288 281 280 281 284 289 293 295 297 292 293 296 296 295 294 292 289 287 283 286 286 278 279 280 292 300 299 302 302 302 302 302 302 301 302 303 304 305 305 306
302 307 307 310 319 311 303 298 294 290 296 299 301 300 301 305 303 301 301 301 303 301 301 299 301 302 302 305 302 303 303 298 294 302 300 299 299 302 303 303 303 300 304 305 315 301 289 290 286 282 280 280 279 279 282 283 291 293 295 296 297 294 291 287 286 282 281 284 287 281 279 284 293 297 297 300 301 301 302 302 302 301 302 303 305 305 305 305
301 291 297 302 311 312 307 305 302 299 295 297 291 296 304 301 304 303 302 303 304 302 300 301 302 303 302 302 299 298 300 302 299 298 297 296 299 300 301 305 305 302 311 315 313 299 291 293 287 282 280 280 280 285 291 292 289 285 293 293 295 295 292 289 282 279 281 281 281 282 286 289 291 292 295 296 298 299 300 300 301 303 304 303 303 304 305 305
306 299 296 293 303 301 303 301 301 299 293 298 291 300 299 301 304 305 303 300 302 303 302 303 303 299 299 299 298 298 300 301 301 298 299 299 300 299 305 303 304 311 318 308 309 297 290 288 293 292 290 290 293 294 298 296 290 291 290 291 293 293 290 287 283 286 284 281 278 282 289 289 289 293 294 294 297 299 299 299 301 301 302 303 305 303 311 305
296 301 310 309 300 290 291 291 304 303 305 302 296 303 299 300 301 296 300 302 303 302 298 299 302 303 300 300 298 294 298 297 297 292 300 301 298 300 299 301 301 309 307 299 307 297 291 287 295 294 294 295 297 296 296 296 293 292 291 289 289 290 290 286 284 286 285 280 280 285 288 289 290 292 295 295 296 298 299 301 302 302 302 303 302 302 303 303
307 307 309 310 297 302 301 303 306 305 302 304 297 301 299 300 299 302 299 300 301 302 299 290 297 300 300 302 297 291 296 292 291 298 298 300 300 297 295 300 302 302 300 300 302 299 291 288 294 297 295 293 295 297 297 295 294 294 294 292 292 291 288 288 288 290 290 285 286 286 287 290 292 293 295 297 298 300 301 302 302 302 302 302 302 302 303 303
303 302 303 307 303 301 302 302 304 302 298 303 296 298 301 300 299 302 305 301 294 299 303 298 298 301 302 302 298 295 299 297 296 292 301 300 298 297 295 296 296 301 300 300 303 300 294 287 297 294 288 290 292 295 297 295 293 292 292 293 293 292 289 287 287 292 291 287 288 288 288 288 292 295 296 298 299 301 301 301 301 301 302 302 301 302 302 303
308 311 310 302 299 299 303 302 300 299 294 293 296 298 302 302 301 304 304 307 301 300 302 300 302 302 303 303 300 300 303 301 301 301 304 299 295 300 296 298 301 298 302 300 300 300 295 288 293 290 286 285 290 294 295 295 294 291 287 285 287 287 288 288 288 290 286 286 285 286 284 284 289 293 296 297 299 298 298 299 301 301 301 302 302 302 302 303
309 312 310 305 296 300 300 302 300 296 289 295 303 303 302 300 302 304 293 302 308 305 303 302 302 299 301 301 301 302 305 305 307 307 305 303 303 304 301 303 303 299 297 299 299 296 292 289 287 284 287 281 289 294 294 293 291 288 288 292 292 289 287 288 291 292 291 285 283 281 284 288 292 295 298 298 298 297 298 298 299 301 301 302 302 302 302 304
Wind_Speed
12 12 12 12 12 12 13 13 12 10 9 9 10 9 9 9 10 10 10 10 11 11 10 10 10 10 9 9 9 8 8 1 1 1 1 7 4 7 6 7 6 8 8 2 2 1 4 3 3 1 0 2 4 2 3 3 1 5 4 4 6 1 3 6 5 6 1 8 10 5 9 13 9 5 5 8 10 9 10 11 6 14 10 8 4 5 5 5
13 12 13 13 13 13 14 14 13 11 12 11 10 9 9 9 9 9 10 10 10 10 10 9 9 9 9 8 8 7 4 0 0 2 9 4 6 8 9 9 11 12 4 1 1 0 1 4 2 3 1 1 3 2 2 1 4 4 2 5 6 5 5 6 7 7 2 11 9 9 6 12 9 7 3 8 3 6 11 8 8 10 10 10 9 6 6 3
14 13 13 14 14 14 14 15 15 12 11 10 10 10 10 10 9 9 9 10 10 10 10 9 8 8 8 8 7 6 3 1 2 4 8 10 10 11 11 13 15 4 1 0 0 1 2 2 5 5 2 1 2 3 2 2 4 1 6 6 7 8 2 8 5 4 1 10 12 11 8 12 8 5 2 7 7 6 10 9 6 11 10 7 6 5 3 1
14 14 14 14 14 15 15 16 16 14 10 10 9 10 11 9 9 8 8 9 9 9 8 9 9 8 7 7 6 4 0 1 1 2 3 9 12 12 13 17 2 3 0 1 1 1 1 2 8 5 1 2 3 3 2 1 3 3 5 5 5 5 3 5 1 2 5 8 11 11 10 10 7 7 8 12 10 3 1 1 15 13 12 9 5 5 4 3
15 15 15 15 15 15 15 15 16 15 11 10 9 9 11 10 9 9 8 8 8 8 8 7 8 6 6 5 7 1 1 4 2 2 4 11 12 13 14 5 5 3 3 1 1 2 5 5 5 1 5 2 2 2 2 2 1 4 1 3 4 4 4 4 13 11 8 9 11 10 11 9 8 8 12 11 12 7 6 4 5 12 10 10 9 7 4 3
16 16 16 16 16 16 16 16 16 15 14 11 9 9 9 9 8 8 8 8 8 8 8 7 7 6 4 2 2 0 1 5 3 2 8 13 12 13 12 5 7 2 2 2 0 3 3 2 8 5 1 2 1 2 0 2 3 4 6 7 14 7 3 4 12 12 7 9 11 9 8 9 6 7 3 6 9 4 4 6 7 8 8 7 5 6 4 4
16 16 16 16 16 16 17 17 16 15 14 12 10 7 7 6 7 7 8 9 9 8 7 7 6 5 2 1 1 0 2 2 1 5 12 13 13 12 11 3 5 0 1 4 2 3 5 8 4 2 5 5 6 4 6 5 6 6 8 12 9 10 9 11 5 6 7 11 9 9 10 12 13 11 2 10 7 9 7 8 8 7 6 6 6 4 5 5
17 16 16 15 16 15 16 17 18 17 15 12 9 5 7 6 5 7 7 8 8 8 6 5 5 4 2 1 1 1 2 1 6 4 13 12 11 11 4 1 2 1 1 5 2 4 3 4 5 1 8 9 4 8 5 12 9 7 4 6 8 10 5 10 7 14 11 12 10 11 12 9 11 10 8 9 11 12 9 8 8 8 7 5 5 5 3 3
17 17 16 16 15 15 16 17 18 17 15 14 12 8 6 5 4 5 6 7 7 7 5 5 3 1 1 1 1 2 1 3 8 9 10 8 9 3 4 2 5 4 2 1 4 6 1 2 2 3 6 7 11 10 3 5 6 3 6 6 14 8 7 8 8 11 10 7 12 15 12 10 14 14 10 8 10 11 10 8 7 7 6 6 5 5 5 5
17 16 17 16 15 14 15 17 17 17 16 16 15 13 8 7 5 3 5 6 6 6 5 2 2 3 1 0 1 6 2 4 2 10 12 11 7 7 3 7 2 4 0 5 10 7 4 4 10 10 14 12 13 6 3 7 5 4 6 10 14 10 8 2 2 6 5 6 14 15 12 13 4 3 3 4 10 10 11 10 7 7 6 5 5 6 7 8
17 17 16 16 15 15 15 17 17 17 17 17 15 14 13 8 5 2 4 6 4 5 6 6 5 3 1 0 2 2 3 6 4 6 11 10 9 6 8 6 7 2 6 10 5 12 8 4 12 3 4 3 7 6 4 3 7 4 7 3 11 10 9 9 6 3 7 3 9 15 8 2 5 4 10 9 9 10 13 11 10 8 6 6 6 6 6 6
18 17 16 16 16 15 15 15 16 16 17 17 17 17 15 8 4 3 5 5 7 8 7 7 8 2 0 2 1 0 5 4 6 7 5 6 3 7 7 7 8 10 5 5 7 1 7 7 7 1 3 3 5 4 4 9 3 1 3 5 2 10 3 7 9 8 4 7 8 11 10 4 2 7 9 11 9 10 11 11 10 8 7 7 6 5 4 4
18 17 17 17 17 17 17 16 15 17 16 17 17 17 15 10 5 3 6 4 8 8 7 8 7 2 1 3 3 8 0 2 5 6 3 4 4 5 8 7 8 11 10 6 5 2 5 11 8 11 6 6 10 2 2 4 4 4 6 6 2 5 5 5 6 7 5 8 14 7 3 2 0 8 7 8 11 11 11 10 9 6 7 7 6 5 4 4
19 19 18 18 16 16 16 16 16 14 14 17 18 17 15 13 1 5 6 8 9 8 8 11 4 2 1 2 5 4 1 4 7 4 5 5 3 6 5 8 10 5 4 6 6 2 7 10 13 7 3 10 4 2 8 2 4 4 2 5 3 3 2 7 7 6 7 9 9 5 5 4 3 6 6 6 11 13 11 9 8 6 5 5 4 3 5 6
20 19 20 18 17 17 17 17 16 16 18 20 21 21 18 14 1 8 9 5 8 8 9 7 1 1 3 5 5 7 5 3 2 5 4 3 5 5 7 3 9 8 6 3 1 3 9 13 9 3 1 3 10 7 3 3 3 2 2 2 2 3 3 2 3 10 9 6 4 10 3 5 6 7 6 6 8 10 9 8 8 6 5 6 4 1 3 5
21 20 20 18 17 16 15 15 17 18 18 20 22 23 20 14 4 9 14 9 13 10 6 0 1 2 1 2 1 9 2 1 3 5 4 6 2 3 8 4 3 6 5 5 6 3 4 7 3 3 4 2 8 7 5 5 2 3 4 2 1 0 3 2 5 11 15 12 6 6 5 2 2 7 7 7 9 8 9 8 7 8 9 9 10 6 6 6
21 21 20 18 16 15 17 16 18 18 19 21 23 22 15 10 9 8 12 12 7 4 2 1 1 1 1 2 2 3 3 4 2 1 2 4 4 4 1 1 3 5 4 6 7 6 4 6 1 4 3 4 4 6 7 5 2 1 1 3 4 1 1 1 1 7 8 12 2 3 7 7 3 9 8 6 8 8 8 8 6 7 6 8 8 6 7 6
21 21 20 19 18 21 16 17 16 18 19 22 18 14 14 13 9 6 10 4 4 3 3 1 2 2 4 3 1 3 1 2 1 5 2 2 3 3 3 1 2 3 2 1 5 4 2 4 3 3 1 1 1 2 4 2 8 4 3 2 1 1 2 1 2 2 9 5 8 3 3 6 4 7 7 9 5 6 7 7 7 7 7 7 6 4 5 4
20 20 20 18 22 21 17 16 16 18 21 22 15 12 13 2 1 2 2 1 1 3 3 2 2 2 3 3 3 3 1 4 1 2 1 3 2 2 3 1 3 2 1 4 3 4 3 5 4 7 5 5 5 1 2 2 8 10 8 5 5 4 2 2 3 3 12 4 6 7 7 5 6 6 6 6 7 7 7 6 5 4 6 5 5 6 6 5
20 21 21 21 22 22 20 15 15 16 18 13 12 9 6 9 8 4 5 2 2 5 5 4 3 4 1 4 1 3 1 3 2 3 3 4 2 6 5 1 2 6 4 2 2 3 2 8 4 1 2 4 4 3 2 8 11 7 3 3 6 4 1 2 4 4 8 6 3 5 6 8 8 8 8 7 6 5 8 9 4 3 4 5 5 5 7 7
20 21 21 22 21 23 22 18 13 13 12 1 3 2 4 4 3 4 7 8 4 5 5 8 7 6 3 1 1 2 0 2 1 3 1 1 3 3 4 2 5 5 3 2 3 2 8 7 4 4 4 4 5 5 5 9 7 7 6 5 3 4 4 4 4 7 3 5 1 3 8 5 6 5 7 5 8 6 9 10 7 5 6 6 7 9 11 9
20 20 22 21 20 22 22 21 16 11 7 1 2 1 1 2 3 5 2 5 11 6 3 6 4 3 3 2 3 3 3 2 4 4 2 2 1 2 3 4 3 1 1 1 6 7 6 4 2 5 5 3 5 5 8 7 5 3 6 4 2 2 3 4 1 4 3 7 2 5 8 4 4 4 3 5 6 3 6 10 14 12 8 7 8 11 10 5
20 22 19 21 23 23 22 21 20 11 1 3 4 4 1 2 1 1 2 0 4 3 4 1 2 3 3 5 2 7 3 4 1 4 3 1 4 2 2 2 6 3 3 3 6 3 5 4 6 6 3 4 3 5 9 8 6 5 5 5 1 3 2 3 2 5 2 3 7 4 8 2 1 1 2 2 4 1 4 7 11 16 15 12 12 12 11 8
22 18 21 20 22 23 22 21 20 1 4 4 2 3 5 4 1 5 3 0 1 8 1 2 0 0 2 2 2 3 3 1 1 4 5 3 1 3 2 2 6 5 4 4 8 8 4 3 4 9 11 7 6 7 10 8 6 4 3 2 1 1 2 6 1 3 7 10 10 10 7 2 1 3 2 3 2 0 2 3 4 4 7 8 7 7 11 14
21 20 19 21 21 23 23 19 5 4 6 3 2 6 4 4 2 2 5 4 2 3 4 1 3 1 1 3 2 1 1 1 1 1 2 2 5 4 2 0 3 3 4 6 6 9 3 1 4 10 6 7 7 8 4 7 6 4 3 3 0 2 1 1 4 8 4 2 2 11 4 0 2 2 3 4 1 0 1 4 4 3 3 6 8 9 5 6
20 21 20 19 21 23 19 2 2 7 4 3 2 7 5 5 5 1 4 3 1 4 4 2 1 2 1 1 0 2 3 1 3 2 1 2 2 2 1 3 2 3 2 3 4 2 1 3 6 5 6 5 6 4 1 5 2 1 2 1 2 0 2 3 6 5 3 4 9 2 3 1 3 3 3 2 1 2 4 1 2 2 3 4 6 7 8 8
21 21 21 19 18 21 5 1 3 4 3 4 9 9 8 5 4 2 3 4 2 0 1 2 2 1 2 1 0 3 1 3 5 4 2 1 1 1 1 3 3 2 1 2 6 3 3 5 7 6 6 5 6 5 2 3 5 1 3 3 3 4 4 2 5 5 2 1 2 3 5 5 0 4 2 4 2 2 3 2 1 3 4 5 5 5 6 7
21 18 18 19 18 10 1 1 6 3 0 5 7 8 8 7 2 4 4 2 1 2 1 2 1 0 0 2 6 2 4 2 2 2 1 2 2 3 6 1 3 2 1 7 6 3 1 4 4 6 6 6 3 1 4 1 1 3 3 1 2 2 1 4 5 4 1 4 0 2 2 6 0 2 2 5 3 2 3 4 2 4 5 5 5 6 7 7
21 18 18 17 18 6 1 0 1 1 3 6 7 8 7 3 6 6 3 2 2 0 2 0 2 1 1 4 1 0 0 1 3 2 3 3 4 2 1 1 2 2 4 7 5 1 1 2 2 5 3 2 4 5 3 3 2 3 2 2 2 3 3 4 2 4 2 4 1 1 1 6 0 2 2 2 3 2 4 5 5 3 4 5 5 5 5 5
21 18 17 16 9 1 0 1 2 4 5 6 7 8 4 3 3 2 2 1 1 0 1 1 1 2 1 1 0 1 2 1 2 1 3 1 5 6 1 1 2 3 3 7 3 5 1 3 3 4 0 0 2 2 3 3 1 5 5 2 2 6 3 1 6 3 4 4 4 3 1 7 1 2 5 5 5 6 4 3 4 2 1 3 5 6 6 6
22 18 14 9 1 0 1 3 4 3 5 6 9 5 3 6 3 4 1 1 0 2 1 1 2 1 2 3 1 1 2 2 1 1 1 5 6 6 5 4 8 7 6 7 4 5 3 3 3 1 1 2 2 2 4 2 1 3 3 2 4 6 8 8 6 6 4 1 3 2 5 5 5 2 4 6 2 7 9 5 6 5 4 4 5 6 6 6
23 20 12 4 4 3 2 1 3 5 6 7 5 4 5 1 6 2 1 4 1 2 1 1 2 2 2 1 3 0 0 2 1 2 2 1 6 6 4 6 2 4 6 3 2 4 3 1 3 3 4 7 3 5 7 7 11 11 7 9 8 2 5 3 7 3 0 2 1 1 5 6 4 3 5 3 3 5 5 7 8 6 5 5 5 6 6 6
24 20 16 4 5 1 5 4 5 5 5 5 3 4 4 4 1 2 1 1 1 2 0 2 0 1 2 4 2 2 1 1 2 2 4 2 6 2 2 4 2 4 3 2 2 3 2 4 4 4 6 2 4 6 5 7 7 8 4 2 5 4 3 0 2 1 3 4 3 1 4 4 2 2 1 4 6 8 8 6 6 7 7 6 5 5 5 5
23 17 6 2 6 6 5 3 4 5 5 5 5 6 6 4 1 5 0 1 1 2 2 1 1 4 4 2 1 1 2 2 2 1 3 1 5 2 5 6 4 5 4 1 3 1 1 3 4 3 1 4 3 3 2 2 1 0 1 5 4 5 1 0 1 2 1 3 4 5 2 2 2 4 1 5 5 4 2 4 4 4 3 4 4 3 3 4
23 11 3 2 2 7 11 8 4 1 3 4 8 5 3 2 3 1 0 1 2 1 0 1 1 3 3 3 3 1 1 0 1 3 4 3 1 1 0 2 4 5 2 4 2 2 1 2 5 3 2 1 3 1 2 2 3 1 3 5 6 1 6 2 4 3 1 1 4 5 1 1 2 1 3 3 1 1 2 2 2 0 2 3 3 3 4 5
11 4 1 3 0 4 4 5 2 2 3 7 6 3 1 4 1 1 0 1 0 1 2 4 6 3 1 2 2 1 3 2 3 4 2 2 2 2 1 0 1 0 2 2 2 1 3 2 3 4 4 3 2 1 2 3 2 4 5 1 3 4 5 2 2 1 3 7 1 1 3 2 2 6 5 5 4 1 3 1 2 1 2 4 4 4 5 5
8 8 3 3 2 3 3 2 3 3 6 7 5 1 5 3 7 3 3 1 0 2 3 3 2 2 0 0 1 3 1 3 2 2 0 1 4 3 1 1 2 2 3 3 1 2 2 3 3 1 1 2 1 2 4 3 3 4 3 5 2 1 6 3 1 3 4 4 1 2 3 2 1 0 2 3 2 2 3 0 1 2 3 5 5 4 5 6
5 3 2 4 5 4 2 3 4 6 3 3 1 7 2 1 3 2 1 2 2 4 2 1 2 4 0 2 2 1 3 4 5 2 1 1 1 0 0 0 3 1 2 0 5 2 3 1 3 2 1 2 4 4 4 3 4 6 4 1 3 1 3 5 3 2 2 1 0 1 3 0 2 1 2 3 2 3 4 3 3 4 4 5 4 5 5 5
1 1 1 3 3 3 3 5 7 3 3 2 2 1 3 4 4 2 3 2 1 3 2 1 1 2 1 2 1 2 1 0 1 2 1 1 3 0 0 2 1 6 5 4 2 1 3 2 2 4 1 0 3 4 1 5 6 3 2 5 1 6 2 2 1 3 5 1 2 2 4 0 2 3 4 4 4 5 3 0 3 4 4 3 3 3 4 5
4 2 2 3 3 3 3 4 3 4 3 1 2 3 2 2 4 5 1 4 1 2 1 1 0 2 3 1 2 0 2 2 4 2 3 2 2 3 1 4 1 3 6 5 2 1 0 2 1 4 5 2 2 2 1 1 1 6 8 4 5 1 1 4 1 1 2 3 2 2 1 2 5 3 4 5 4 4 5 5 4 4 4 4 4 3 1 4
2 1 1 3 5 3 5 5 2 0 1 2 0 2 2 1 3 2 1 5 1 2 2 1 2 2 1 2 4 0 1 3 3 3 1 0 2 1 2 1 1 2 1 4 7 3 2 2 1 3 5 2 1 2 3 4 3 3 4 2 2 3 1 1 1 3 2 3 1 2 2 6 8 1 5 4 5 4 4 6 4 3 4 4 3 4 4 3
1 1 1 2 4 3 5 2 1 1 1 0 1 1 4 1 2 2 1 2 4 0 0 3 1 3 2 2 1 2 1 2 2 3 2 2 0 3 2 5 1 0 2 0 0 1 3 2 5 2 1 3 0 4 1 8 6 3 6 1 3 3 5 4 2 3 2 1 1 2 5 3 3 3 3 3 3 5 5 5 4 3 3 3 4 5 4 4
3 2 6 7 2 3 3 1 2 2 1 3 5 6 4 3 3 2 0 1 1 1 1 2 1 3 1 1 0 2 1 1 0 1 1 1 1 1 2 5 5 7 4 2 1 1 5 2 3 2 4 3 3 3 3 6 5 5 3 2 3 1 2 4 2 4 3 2 2 1 1 3 2 3 3 2 2 3 3 5 5 3 3 2 2 3 4 3
2 2 6 4 2 5 3 1 2 2 4 4 2 6 5 5 1 0 1 0 1 0 2 1 3 2 2 1 2 0 0 1 2 2 1 0 0 2 6 6 6 1 3 2 2 1 1 2 5 2 1 3 4 3 3 4 5 2 1 1 1 3 4 1 4 2 3 1 2 3 2 3 2 3 4 1 2 3 4 4 5 4 2 3 4 4 4 3
3 3 3 6 5 4 1 4 3 1 1 2 2 8 9 2 4 3 2 2 1 1 1 1 2 2 2 1 1 1 0 2 0 2 3 1 1 1 3 9 6 3 2 5 6 2 4 1 1 2 3 1 1 1 2 1 1 0 0 0 0 3 2 1 0 1 2 1 2 1 2 6 7 5 4 1 1 2 3 4 3 4 5 4 3 4 1 1
2 1 5 4 5 3 1 0 1 1 3 1 3 7 2 3 3 2 4 1 0 3 3 3 3 5 2 3 2 1 1 0 2 1 1 0 1 0 2 3 3 3 3 1 0 4 1 1 3 4 4 5 4 3 4 3 1 1 1 1 1 2 3 6 5 3 1 2 1 5 4 2 6 2 3 5 4 3 4 4 4 3 2 2 2 1 3 5
0 2 1 3 6 5 2 3 3 3 3 1 1 1 3 4 2 1 4 1 2 2 1 1 2 3 1 4 1 0 1 0 1 0 1 3 1 0 1 4 4 2 5 3 2 4 2 2 1 3 4 7 7 4 4 5 2 2 2 2 2 3 4 4 1 1 5 5 3 2 3 0 5 5 5 6 7 5 6 4 3 4 4 3 0 0 2 1
2 2 2 1 1 2 3 3 5 6 5 1 4 1 3 3 3 0 3 0 0 2 2 3 3 1 8 6 4 1 0 1 1 1 1 2 2 1 1 4 2 0 3 1 2 2 3 1 2 1 3 3 3 5 5 2 3 5 5 4 3 3 3 3 3 4 6 3 4 3 5 2 4 5 7 6 6 5 6 3 6 6 2 2 3 4 2 4
1 2 1 3 2 1 2 5 4 3 6 1 2 1 1 3 4 3 3 1 2 0 3 1 1 3 6 3 4 3 2 2 1 2 1 0 1 1 1 2 2 4 1 2 2 1 3 0 1 0 1 4 2 3 3 4 1 1 2 5 6 6 7 6 3 4 9 4 7 5 5 7 7 6 5 4 3 5 4 1 2 3 3 4 4 2 2 3
3 2 5 4 2 3 3 2 1 3 5 3 0 2 1 1 4 2 1 3 0 1 0 2 2 1 5 6 4 4 6 7 7 4 2 2 1 1 2 3 1 1 1 1 1 1 4 2 2 1 3 2 4 5 1 5 6 4 4 2 1 2 2 2 1 1 2 1 1 1 1 6 6 7 6 4 3 1 1 4 6 5 5 5 4 4 4 4
2 2 1 3 4 4 3 2 2 2 3 4 1 3 2 2 2 2 2 3 5 4 2 3 4 0 1 4 4 5 6 7 7 6 6 7 2 5 2 3 4 3 0 0 1 1 3 2 2 2 2 4 3 2 7 2 1 0 3 4 1 4 3 3 3 6 6 7 1 1 1 5 7 5 3 3 2 4 5 5 4 5 5 6 6 4 4 4
1 2 2 1 1 1 3 2 2 2 1 1 3 5 3 7 7 4 3 4 2 5 7 6 3 5 2 3 5 4 4 5 8 5 5 4 3 1 2 2 7 7 4 3 0 3 2 2 1 1 1 3 6 3 5 2 1 6 8 10 10 6 1 0 2 2 5 8 6 3 7 6 6 1 1 1 4 3 2 5 4 5 5 6 6 5 3 4
Wind_Direction
345 342 338 334 330 324 320 318 320 325 327 331 327 324 316 311 304 304 302 303 300 296 298 298 303 306 308 314 318 322 335 147 100 92 318 240 206 215 227 245 219 218 207 197 258 341 324 356 324 308 12 111 264 201 246 80 113 63 55 111 44 85 132 192 170 202 193 145 179 163 133 115 110 108 110 70 52 80 67 64 59 57 58 72 69 58 61 60
342 340 338 336 333 331 327 324 322 328 340 334 326 317 309 303 301 303 304 301 301 297 295 301 302 305 311 312 320 332 347 120 179 252 239 219 205 199 216 224 230 223 141 211 190 85 353 295 283 26 68 66 276 258 128 353 82 90 107 81 139 197 221 174 192 190 162 171 175 135 154 114 128 139 162 96 64 78 70 51 73 79 73 71 63 63 67 53
343 341 339 338 336 333 328 324 324 331 333 326 321 315 307 301 302 302 301 299 297 298 297 298 304 304 302 315 323 347 342 86 5 269 264 198 195 202 214 223 224 157 173 7 247 164 193 278 15 3 350 267 240 247 125 166 84 235 123 114 179 190 196 209 182 182 260 138 122 133 125 116 144 106 147 106 117 91 114 119 76 111 121 112 95 94 90 79
343 340 339 338 335 334 332 328 325 326 331 326 317 313 305 304 303 303 300 296 291 292 293 291 292 296 300 305 335 339 26 69 22 250 265 193 191 207 216 228 152 123 44 184 171 181 215 270 250 197 148 188 258 220 98 235 78 179 78 139 185 151 163 225 106 63 125 122 129 121 124 108 119 118 119 125 96 54 79 155 145 147 144 137 138 130 138 142
343 342 342 339 339 334 331 326 323 325 325 321 318 306 306 307 308 306 300 292 285 278 278 273 276 283 294 317 329 327 7 55 316 234 230 187 203 215 223 214 134 190 173 212 292 183 201 227 232 166 146 169 144 132 14 42 127 101 132 132 93 112 3 44 53 49 4 98 112 118 116 112 111 101 127 137 130 176 187 137 124 136 144 146 153 160 147 154
344 344 342 341 336 334 331 328 325 322 321 315 310 306 300 299 301 300 296 286 277 267 259 262 266 274 301 7 313 247 103 75 245 232 178 199 209 222 232 192 199 106 54 341 4 299 32 19 2 15 36 71 66 97 69 98 73 80 60 53 60 53 69 60 140 138 159 108 108 109 108 117 117 101 108 112 130 165 130 113 125 131 144 143 131 136 143 156
345 343 341 338 338 335 332 329 324 319 315 312 300 291 292 298 293 291 288 283 276 274 269 267 267 278 272 150 250 89 115 259 234 235 162 201 215 219 227 190 75 51 28 334 348 41 25 330 28 295 127 97 54 63 42 38 38 81 73 79 83 70 36 73 66 106 79 72 85 111 117 110 115 94 120 97 107 124 122 120 125 127 125 124 132 154 158 167
342 340 339 337 336 332 329 328 323 319 316 310 300 275 321 315 307 287 278 281 280 281 281 267 263 260 143 259 81 6 54 240 241 178 187 191 215 227 198 120 168 159 184 216 165 68 11 317 311 277 67 82 80 65 41 48 35 45 63 113 89 83 76 54 68 101 108 116 120 100 92 96 100 113 111 103 121 127 130 127 126 127 128 137 135 138 139 156
340 338 337 336 334 331 329 326 323 319 315 311 313 309 334 338 319 295 274 272 274 270 269 262 278 83 47 314 122 57 350 244 191 182 173 186 214 217 135 243 179 194 215 159 138 124 141 288 250 227 124 91 78 63 39 91 30 42 92 79 92 63 52 67 92 102 117 115 111 90 94 99 100 94 69 123 126 132 131 132 130 127 132 136 135 136 155 150
339 335 336 336 333 332 328 325 322 318 314 312 317 316 332 350 336 295 260 263 256 253 251 278 214 164 192 272 54 79 247 150 187 178 176 187 178 162 207 239 158 199 217 245 117 154 195 206 97 91 101 74 83 112 121 76 158 164 114 116 110 128 97 117 140 139 133 122 118 113 122 133 161 101 109 138 136 134 134 134 141 140 143 147 137 145 152 145
337 337 335 335 333 331 329 326 321 316 314 317 315 319 326 342 338 287 249 241 226 218 220 193 147 143 343 119 87 119 188 112 218 193 192 175 158 174 219 214 210 181 206 276 247 160 222 195 132 164 53 162 109 85 94 181 179 170 120 71 117 138 156 172 139 124 116 80 117 122 118 80 22 87 142 151 150 145 138 146 151 153 152 145 144 146 148 132
336 334 333 333 332 328 328 325 319 317 315 313 318 320 318 331 325 281 224 215 200 201 194 170 157 174 124 70 124 143 182 211 179 199 187 155 186 221 237 214 179 206 177 254 286 164 167 193 140 105 143 191 65 161 149 186 140 211 111 96 107 124 128 179 147 165 155 132 133 118 87 30 2 126 142 150 149 149 144 148 155 154 148 147 143 140 139 139
336 332 333 335 334 333 327 323 322 320 313 317 318 315 312 318 313 210 215 206 191 186 172 154 155 213 100 27 241 239 258 93 178 178 181 204 260 249 229 246 217 210 197 200 257 238 112 135 110 109 153 141 158 160 183 63 76 104 54 121 48 38 131 203 137 164 144 149 160 132 49 289 347 140 151 158 147 146 145 152 156 152 152 151 149 146 148 148
336 334 334 335 332 328 326 328 326 317 312 319 316 312 310 307 269 191 196 196 178 175 151 151 177 156 62 266 278 270 204 146 139 175 223 188 243 270 268 257 259 255 207 204 246 239 101 105 113 128 206 140 173 62 76 20 26 57 15 54 101 96 220 173 168 157 145 173 176 88 137 244 211 183 164 171 152 151 154 158 156 144 118 111 101 136 170 175
337 335 335 331 328 328 332 332 330 330 328 327 322 318 315 307 191 175 188 173 185 172 133 136 207 66 30 290 263 298 323 67 43 243 218 176 209 294 284 264 263 268 283 235 261 50 123 113 115 122 84 341 89 74 45 43 30 56 48 357 333 116 260 278 205 163 146 191 160 89 90 205 192 198 185 173 165 154 153 162 157 142 110 94 62 191 182 194
337 336 332 330 323 327 333 333 334 333 330 326 323 316 310 303 168 182 174 183 177 151 158 355 358 85 28 342 276 319 348 106 260 253 253 214 179 213 273 287 312 309 342 327 39 12 77 113 95 130 100 34 73 99 83 52 352 23 104 247 263 204 255 49 171 172 173 158 208 125 180 91 266 211 185 187 170 163 158 169 158 141 121 124 161 213 207 209
337 335 332 327 324 327 335 332 335 336 333 325 324 312 309 295 326 156 193 154 148 151 220 96 143 93 67 245 309 348 258 259 223 306 274 190 190 202 143 33 298 286 333 345 358 359 354 71 41 68 23 112 123 108 86 33 33 349 352 173 206 168 280 69 276 185 171 164 175 106 122 199 196 177 182 189 178 162 166 172 156 137 131 162 178 196 199 211
337 334 333 327 328 334 334 335 336 337 329 321 316 286 291 303 341 344 103 130 93 155 247 233 121 50 308 345 133 228 223 272 346 249 219 272 185 327 64 6 296 282 28 27 341 53 12 74 60 154 27 356 47 46 84 39 170 205 241 88 307 297 157 196 125 219 131 172 140 78 88 174 175 165 176 188 178 166 171 167 166 150 151 165 179 200 207 214
334 332 330 328 331 331 335 336 340 341 331 320 296 281 263 267 9 51 68 83 39 6 23 320 59 93 144 239 279 333 323 221 315 36 309 332 323 67 8 210 222 127 97 70 287 43 356 70 44 45 11 344 323 183 186 196 152 174 181 176 147 150 232 186 223 184 127 119 119 145 157 167 153 170 187 188 178 180 185 170 146 157 163 172 182 194 202 209
335 333 332 329 330 330 332 341 340 339 339 348 360 354 15 15 4 340 334 58 146 180 226 257 222 211 276 333 301 252 289 13 108 286 315 281 334 1 320 282 355 47 80 98 312 28 72 76 66 28 302 251 255 224 111 133 157 149 105 111 166 166 271 239 164 158 127 94 163 172 148 148 157 175 182 185 171 158 159 170 146 162 185 187 187 200 216 209
335 333 332 329 327 328 328 334 339 327 325 252 331 14 41 22 29 334 326 301 227 234 255 271 195 170 201 218 293 85 28 297 341 294 222 354 102 40 297 43 21 59 333 136 116 332 67 61 2 272 271 337 332 53 66 70 91 135 137 129 203 139 185 223 174 155 205 109 81 120 128 160 159 172 178 161 162 173 146 160 153 174 206 205 191 198 212 209
334 331 331 329 325 327 326 329 327 323 321 207 46 8 153 167 172 195 129 315 319 309 247 237 313 20 15 173 171 157 88 57 356 334 302 69 340 73 304 75 77 139 275 24 26 26 47 90 265 258 283 48 35 56 68 80 82 52 113 125 83 262 227 285 327 122 219 93 115 139 129 164 176 175 194 162 180 179 163 153 157 169 194 206 191 198 196 193
337 332 329 329 329 326 328 321 320 331 94 359 12 332 75 264 287 274 142 131 268 261 281 38 350 24 317 337 322 73 64 61 309 299 300 73 10 19 351 53 47 45 21 21 101 41 37 300 260 274 331 74 39 49 51 44 54 77 40 55 308 245 96 283 309 127 103 127 159 123 83 40 24 29 198 252 183 180 194 171 160 162 174 183 187 184 183 181
336 330 331 330 326 327 321 323 302 296 345 317 219 339 303 319 310 57 72 179 280 313 326 305 319 1 27 333 328 44 83 340 100 309 322 65 34 200 74 84 57 49 21 81 104 104 88 292 276 39 48 85 74 50 56 51 24 347 99 150 295 3 245 158 228 88 57 40 104 86 58 0 4 130 244 280 292 30 176 184 171 194 166 160 168 183 181 178
335 334 332 330 328 325 321 319 24 342 307 335 46 353 316 333 330 115 74 352 13 295 299 14 35 263 273 328 330 88 301 346 273 250 251 85 359 37 326 122 96 55 112 101 77 55 357 320 37 57 33 43 59 49 64 98 24 328 261 167 291 196 260 96 134 97 24 37 271 131 59 262 293 290 237 276 339 180 335 157 203 188 129 136 165 189 207 211
335 335 334 331 330 325 311 336 333 333 331 83 314 313 311 333 357 71 95 74 337 267 8 291 58 317 225 0 38 159 67 4 258 245 60 203 194 104 7 344 127 82 96 86 113 141 101 332 70 87 83 48 41 77 170 104 144 66 282 155 220 26 36 35 122 81 103 138 234 199 123 252 324 277 251 263 261 282 322 111 227 190 176 174 188 189 194 199
334 333 333 333 332 332 11 291 300 311 27 324 336 324 322 332 356 49 59 5 31 271 239 235 60 233 59 253 114 56 58 275 309 344 43 227 62 59 106 308 6 342 41 146 41 321 12 2 38 38 61 56 49 40 297 124 86 291 253 317 14 356 324 43 104 116 182 240 42 72 119 128 178 288 238 183 131 302 304 305 107 210 212 208 211 206 205 206
332 330 330 333 329 339 175 314 346 46 198 289 304 315 317 322 6 55 79 65 333 280 301 288 225 5 299 287 94 139 196 176 27 301 190 290 84 354 81 309 125 127 165 69 110 252 99 0 52 41 48 38 17 241 254 103 135 225 259 226 311 296 250 114 101 115 121 98 41 351 83 65 304 285 343 118 129 311 287 293 265 214 222 222 209 208 212 209
331 329 331 330 324 327 252 143 107 341 288 294 310 317 315 23 75 102 115 100 246 280 94 71 315 35 308 358 21 267 356 117 138 258 316 1 47 130 31 304 122 69 10 115 149 265 355 117 143 116 101 39 282 306 294 125 6 288 236 258 293 334 58 100 104 87 20 69 275 269 75 109 292 283 22 353 101 219 247 252 262 232 218 202 209 218 221 219
328 328 331 328 323 111 6 218 234 239 287 300 318 320 360 54 36 39 18 37 237 284 241 241 56 240 130 142 222 9 24 306 138 343 16 136 325 24 19 11 106 84 42 354 84 203 159 279 97 78 120 252 249 266 31 25 237 288 18 36 33 46 27 15 63 81 57 31 281 256 79 130 163 261 180 138 210 194 212 285 282 277 276 204 202 199 209 211
325 326 325 342 28 60 334 347 256 276 305 329 332 358 62 36 108 99 96 224 307 258 322 307 266 14 99 102 63 299 111 326 348 76 353 14 358 27 17 15 30 58 32 12 21 357 35 11 16 357 70 349 72 9 16 46 320 69 37 37 33 355 12 32 346 36 81 299 273 236 124 102 108 302 274 238 243 165 167 195 215 231 228 212 200 212 215 206
324 321 318 293 231 359 168 224 272 331 337 338 11 45 64 16 11 102 198 301 67 286 72 296 303 104 88 99 106 292 275 354 333 60 89 65 59 53 23 104 32 53 358 346 346 346 16 306 262 344 324 68 359 57 331 358 18 28 26 36 77 312 32 351 9 16 72 119 240 156 99 42 36 218 205 228 201 204 202 188 190 206 221 214 217 207 210 206
323 322 317 228 181 215 240 251 319 323 342 6 59 47 61 94 66 266 306 268 254 167 326 180 134 69 94 54 343 320 39 98 332 85 115 39 97 50 73 101 153 131 96 284 65 29 284 306 345 315 6 39 91 75 337 15 347 24 42 98 69 56 36 44 278 226 322 307 279 93 86 92 270 321 237 205 221 204 201 215 193 184 200 205 206 208 213 210
318 322 337 182 193 229 254 284 285 358 0 32 73 36 48 57 321 239 344 205 181 239 239 202 19 22 48 124 287 89 25 297 79 317 81 135 54 41 345 4 55 43 87 140 78 193 58 352 314 8 343 299 67 140 147 179 289 266 212 115 150 148 154 195 250 46 258 223 281 305 45 211 109 237 271 236 223 212 231 228 204 191 202 191 196 193 210 225
313 303 215 268 250 246 239 254 268 60 57 66 51 79 99 251 226 241 0 304 309 68 1 23 102 72 342 3 339 346 140 331 12 59 24 82 21 105 331 320 337 105 103 74 291 68 163 194 252 245 207 124 77 310 138 92 36 291 131 92 56 336 155 103 202 149 252 8 7 359 91 195 130 250 18 352 31 44 271 240 47 12 75 136 141 177 207 226
328 318 162 298 209 269 191 221 152 89 80 57 76 48 164 192 267 212 102 211 298 90 296 15 65 66 322 323 323 22 329 115 320 76 355 83 153 91 225 180 16 24 101 117 211 61 31 53 266 306 2 101 153 96 7 95 88 281 51 10 247 189 111 84 3 9 69 54 43 237 13 357 335 24 3 2 21 342 320 358 43 103 139 155 184 203 216 226
5 332 27 310 262 243 193 177 122 84 59 89 89 295 207 283 204 247 288 89 191 129 54 79 302 118 229 271 275 326 320 45 332 89 1 50 17 334 18 314 207 57 153 135 333 190 132 239 292 90 17 278 277 77 66 65 138 63 46 266 273 48 116 115 153 341 64 105 276 46 136 275 22 58 333 19 56 299 290 15 234 208 168 178 209 221 224 225
325 328 250 267 243 224 139 144 84 46 74 79 127 216 240 258 277 208 243 46 17 45 89 100 271 99 258 114 338 317 325 90 298 54 184 7 133 237 354 326 336 38 31 99 118 288 107 19 308 284 162 325 4 43 355 333 17 131 169 205 84 313 5 324 83 18 18 33 288 0 338 62 131 234 356 33 139 218 254 258 198 176 189 192 221 247 247 251
258 24 20 260 314 136 127 92 68 75 62 51 254 24 267 231 262 257 131 152 115 102 75 244 126 334 113 53 247 330 344 106 287 95 88 306 87 310 234 182 307 329 6 93 64 289 55 135 300 302 71 260 32 64 345 300 324 1 29 19 19 101 147 43 185 175 115 201 71 274 41 196 235 218 198 162 179 188 193 121 183 206 219 229 224 207 220 223
21 40 334 307 349 86 89 66 61 45 73 195 221 211 226 309 275 293 101 102 349 77 215 94 89 75 23 122 108 162 301 70 30 315 103 271 118 291 14 10 140 334 36 54 112 84 12 107 133 277 319 50 5 345 159 151 53 354 32 354 349 26 225 108 13 69 157 164 164 156 0 285 267 213 178 178 184 192 150 154 192 211 235 242 233 215 237 176
310 99 264 300 339 334 50 47 50 84 194 261 153 256 296 243 315 281 353 108 96 135 142 162 148 96 210 38 360 309 27 18 24 21 63 329 112 0 265 236 189 358 34 20 43 359 67 14 127 311 22 12 233 238 177 158 146 142 141 121 171 70 47 87 274 345 66 90 199 104 227 270 270 200 214 184 197 157 190 149 180 202 209 214 218 214 194 177
48 52 266 280 342 49 74 34 295 225 119 198 288 218 297 301 237 263 342 338 102 326 89 101 108 119 86 86 205 13 83 15 12 72 354 142 254 141 272 54 54 185 109 66 85 246 144 151 94 54 185 155 112 18 125 119 103 136 125 151 133 121 100 92 128 268 10 314 88 155 121 269 245 288 317 242 166 166 164 132 144 187 193 209 221 210 217 199
37 223 256 295 311 84 67 36 290 26 320 237 267 272 259 279 229 244 97 10 75 136 70 56 174 86 312 127 97 64 101 55 85 93 202 88 60 204 240 103 93 48 73 324 25 294 68 65 42 319 316 307 321 317 18 39 81 34 14 68 74 72 173 167 173 190 125 332 41 358 91 243 284 330 351 72 169 143 153 148 159 199 214 221 190 233 212 208
280 280 315 307 42 91 84 193 294 303 281 313 334 290 296 234 195 331 90 177 165 347 142 139 27 101 162 107 91 72 148 75 297 100 340 180 86 283 94 73 96 75 93 222 124 257 66 305 115 61 2 337 341 345 6 336 47 110 149 323 122 94 70 114 100 43 87 247 164 111 191 273 266 346 343 68 110 128 150 204 164 166 221 177 183 200 241 239
293 265 249 298 350 71 176 192 142 186 273 292 334 309 315 321 206 159 137 356 59 88 64 4 166 161 64 108 100 87 124 143 292 282 169 108 194 93 99 109 95 106 152 203 183 71 92 184 91 117 131 138 265 297 276 302 203 291 343 353 0 103 108 42 275 356 107 273 96 129 246 258 284 330 327 321 155 146 246 217 248 184 172 177 179 209 147 171
16 47 299 334 4 24 21 175 136 171 282 324 354 276 230 278 329 16 73 127 332 69 103 119 22 72 83 66 43 29 338 39 121 256 60 176 266 68 194 132 104 140 223 126 1 76 154 92 104 151 147 182 206 210 246 110 47 68 277 127 150 80 84 93 104 87 199 207 220 228 179 295 315 308 320 288 296 237 225 228 194 209 237 227 228 229 177 189
323 87 351 334 338 29 298 357 21 20 281 185 263 270 316 318 253 333 13 97 342 120 90 108 160 101 305 79 180 104 233 324 312 51 218 158 260 288 351 99 68 117 154 105 89 80 63 44 296 143 190 200 182 190 194 166 169 214 153 230 256 181 147 111 133 235 175 78 316 260 215 65 258 279 271 264 267 273 276 270 248 247 220 195 142 12 135 204
46 271 86 199 148 251 32 313 6 322 296 191 245 263 279 313 4 24 332 322 324 47 96 333 44 157 174 167 139 134 280 16 354 231 338 13 77 6 49 340 38 118 86 45 51 111 129 118 268 122 297 263 220 208 182 155 177 185 187 183 207 199 125 148 221 198 133 152 200 226 194 218 255 239 256 253 236 228 234 234 213 205 219 60 77 82 139 204
142 313 323 357 63 267 195 258 320 291 308 271 262 328 286 282 275 219 166 336 27 1 105 178 281 187 177 164 116 180 191 102 291 278 167 179 146 120 25 347 315 11 61 62 15 112 85 256 241 163 281 325 300 248 244 183 213 139 208 201 207 153 199 177 204 184 166 193 208 202 194 231 238 250 246 252 240 209 217 219 112 133 155 141 129 146 157 183
3 11 326 354 354 281 275 310 262 28 356 309 330 272 204 220 269 310 334 123 1 287 80 114 236 276 168 160 139 143 208 174 176 183 250 118 339 100 205 184 194 339 72 150 149 348 104 275 170 53 33 304 289 319 308 213 162 232 256 293 278 199 148 195 154 146 104 0 268 169 247 289 265 216 233 260 268 204 84 144 169 177 156 159 163 180 179 173
284 260 304 322 338 283 324 0 8 24 5 328 73 285 335 297 247 226 252 170 157 187 189 197 211 121 142 156 168 216 220 179 169 177 178 138 164 224 140 275 141 160 72 98 52 335 71 259 48 54 44 313 306 356 289 288 45 317 308 313 225 144 142 214 169 209 145 211 152 102 317 270 271 259 250 275 234 182 176 195 198 199 193 172 172 190 184 193
288 287 331 197 265 316 3 328 322 51 323 244 17 337 340 301 303 331 333 294 220 183 168 185 204 100 20 121 216 236 230 202 194 193 166 178 160 189 165 196 157 153 200 143 155 128 154 111 33 49 50 262 266 344 335 95 72 332 292 250 207 211 182 233 278 205 199 145 125 172 228 216 226 230 224 256 195 232 257 212 216 223 204 177 175 183 186 195